Regional Weather Roundup
Issued by NWS

Home | Current Version | Previous Version | Graphics & Text | Print | Product List | Glossary On
Versions: 1 2 3 4 5 6 7 8 9 10 11 12 13 14 15 16 17 18 19 20 21 22 23 24 25 26 27 28 29 30 31 32 33 34 35 36 37 38 39 40 41 42 43 44 45 46 47 48 49 50
000
ASUS43 KBIS 251202
RWRND

NORTH DAKOTA REGIONAL WEATHER ROUNDUP
NATIONAL WEATHER SERVICE BISMARCK ND
700 AM CDT WED MAY 25 2016

NOTE: "FAIR" INDICATES FEW OR NO CLOUDS BELOW 12,000 FEET WITH NO
SIGNIFICANT WEATHER AND/OR OBSTRUCTIONS TO VISIBILITY.


NDZ001>003-009>011-017-251300-
NORTHWEST NORTH DAKOTA

CITY           SKY/WX    TMP DP  RH WIND       PRES   REMARKS
WILLISTON      CLOUDY    52  47  83 NE12      29.84F
6HR MIN TEMP:  51; 6HR MAX TEMP:  57; 6HR PCP:  0.04;

MINOT          RAIN      58  55  90 CALM      29.85S FOG
$$

NDZ018>021-031>035-040>046-251300-
SOUTHWEST NORTH DAKOTA

CITY           SKY/WX    TMP DP  RH WIND       PRES   REMARKS
BISMARCK       CLOUDY    57  56  96 NE6       29.81S
6HR MIN TEMP:  56; 6HR MAX TEMP:  67; 6HR PCP:  0.11;

DICKINSON      CLOUDY    50  48  93 E7        29.81S
GARRISON         N/A     56  54  93 NE6       29.83F
6HR MIN TEMP:  56; 6HR MAX TEMP:  63; 6HR PCP:  0.31;

HETTINGER ARPT CLOUDY    50  47  89 W3        29.84R
$$

NDZ004>008-012>016-024-026-027-054-251300-
NORTHEAST NORTH DAKOTA

CITY           SKY/WX    TMP DP  RH WIND       PRES   REMARKS
GRAND FORKS    CLOUDY    60  53  77 E9        29.81F
$$

NDZ022-023-025-028>030-036>039-047>053-251300-
SOUTHEAST NORTH DAKOTA

CITY           SKY/WX    TMP DP  RH WIND       PRES   REMARKS
FARGO          CLOUDY    66  51  58 E16       29.79F
6HR MIN TEMP:  66; 6HR MAX TEMP:  67;

$$





USA.gov is the U.S. government's official web portal to all federal, state and local government web resources and services.